Time,TemperatureF,DewpointF,PressureIn,WindDirection,WindDirectionDegrees,WindSpeedMPH,WindSpeedGustMPH,Humidity,HourlyPrecipIn,Conditions,Clouds,dailyrainin,SoftwareType,DateUTC
2013-04-30 00:01:00,50.5,39.2,30.23,West,276,11.0,13.0,65,0.00,,,0.00,Wunderground v.1.15,2013-04-30 04:01:00,
2013-04-30 00:06:00,50.7,39.0,30.23,West,277,12.0,13.0,64,0.00,,,0.00,Wunderground v.1.15,2013-04-30 04:06:00,
2013-04-30 00:11:00,50.8,38.2,30.23,West,274,13.0,14.0,62,0.00,,,0.00,Wunderground v.1.15,2013-04-30 04:11:00,
2013-04-30 00:16:00,50.9,38.3,30.23,West,278,13.0,14.0,62,0.00,,,0.00,Wunderground v.1.15,2013-04-30 04:16:00,
2013-04-30 00:21:00,51.0,38.4,30.22,West,279,13.0,14.0,62,0.00,,,0.00,Wunderground v.1.15,2013-04-30 04:21:00,
2013-04-30 00:26:00,51.1,38.1,30.23,West,278,13.0,14.0,61,0.00,,,0.00,Wunderground v.1.15,2013-04-30 04:26:00,
2013-04-30 00:31:00,51.0,38.4,30.23,WNW,283,13.0,13.0,62,0.00,,,0.00,Wunderground v.1.15,2013-04-30 04:31:00,
2013-04-30 00:36:00,51.1,38.5,30.22,WNW,283,13.0,14.0,62,0.00,,,0.00,Wunderground v.1.15,2013-04-30 04:36:00,
2013-04-30 00:41:00,50.9,38.7,30.22,WNW,285,12.0,13.0,63,0.00,,,0.00,Wunderground v.1.15,2013-04-30 04:41:00,
2013-04-30 00:46:00,50.9,39.1,30.23,West,281,12.0,14.0,64,0.00,,,0.00,Wunderground v.1.15,2013-04-30 04:46:00,
2013-04-30 00:51:00,50.8,39.1,30.22,West,281,12.0,13.0,64,0.00,,,0.00,Wunderground v.1.15,2013-04-30 04:51:00,
2013-04-30 00:56:00,50.8,39.1,30.22,WNW,283,13.0,14.0,64,0.00,,,0.00,Wunderground v.1.15,2013-04-30 04:56:00,
2013-04-30 01:01:00,50.7,39.4,30.22,WNW,283,12.0,13.0,65,0.00,,,0.00,Wunderground v.1.15,2013-04-30 05:01:00,
2013-04-30 01:06:00,50.6,39.3,30.22,West,277,12.0,13.0,65,0.00,,,0.00,Wunderground v.1.15,2013-04-30 05:06:00,
2013-04-30 01:11:00,50.5,39.2,30.22,WNW,283,13.0,13.0,65,0.00,,,0.00,Wunderground v.1.15,2013-04-30 05:11:00,
2013-04-30 01:16:00,50.5,39.2,30.22,WNW,285,12.0,13.0,65,0.00,,,0.00,Wunderground v.1.15,2013-04-30 05:16:00,
2013-04-30 01:21:00,50.3,39.8,30.22,WNW,284,11.0,12.0,67,0.00,,,0.00,Wunderground v.1.15,2013-04-30 05:21:00,
2013-04-30 01:26:00,50.3,39.8,30.22,West,281,11.0,12.0,67,0.00,,,0.00,Wunderground v.1.15,2013-04-30 05:26:00,
2013-04-30 01:31:00,50.1,39.9,30.22,West,281,11.0,12.0,68,0.00,,,0.00,Wunderground v.1.15,2013-04-30 05:31:00,
2013-04-30 01:36:00,49.9,40.1,30.22,West,279,11.0,12.0,69,0.00,,,0.00,Wunderground v.1.15,2013-04-30 05:36:00,
2013-04-30 01:41:00,49.8,40.4,30.22,West,276,10.0,11.0,70,0.00,,,0.00,Wunderground v.1.15,2013-04-30 05:41:00,
2013-04-30 01:46:00,49.7,40.7,30.22,West,279,11.0,11.0,71,0.00,,,0.00,Wunderground v.1.15,2013-04-30 05:46:00,
2013-04-30 01:51:00,49.6,40.9,30.22,West,277,11.0,11.0,72,0.00,,,0.00,Wunderground v.1.15,2013-04-30 05:51:00,
2013-04-30 01:56:00,49.5,40.8,30.22,West,281,11.0,11.0,72,0.00,,,0.00,Wunderground v.1.15,2013-04-30 05:56:00,
2013-04-30 02:01:00,49.4,40.7,30.22,WNW,285,10.0,11.0,72,0.00,,,0.00,Wunderground v.1.15,2013-04-30 06:01:00,
2013-04-30 02:06:00,49.4,40.7,30.22,WNW,288,10.0,11.0,72,0.00,,,0.00,Wunderground v.1.15,2013-04-30 06:06:00,
2013-04-30 02:11:00,49.3,41.0,30.22,WNW,288,11.0,11.0,73,0.00,,,0.00,Wunderground v.1.15,2013-04-30 06:11:00,
2013-04-30 02:16:00,49.3,41.4,30.22,WNW,285,10.0,11.0,74,0.00,,,0.00,Wunderground v.1.15,2013-04-30 06:16:00,
2013-04-30 02:21:00,49.2,41.3,30.22,WNW,283,11.0,11.0,74,0.00,,,0.00,Wunderground v.1.15,2013-04-30 06:21:00,
2013-04-30 02:25:00,49.2,40.6,30.22,WNW,290,11.0,12.0,72,0.00,,,0.00,Wunderground v.1.15,2013-04-30 06:25:00,
2013-04-30 02:30:00,49.3,40.7,30.22,WNW,283,10.0,11.0,72,0.00,,,0.00,Wunderground v.1.15,2013-04-30 06:30:00,
2013-04-30 02:35:00,49.2,40.9,30.22,West,281,10.0,11.0,73,0.00,,,0.00,Wunderground v.1.15,2013-04-30 06:35:00,
2013-04-30 02:40:00,49.1,40.8,30.22,West,281,10.0,11.0,73,0.00,,,0.00,Wunderground v.1.15,2013-04-30 06:40:00,
2013-04-30 02:45:00,49.0,41.4,30.22,West,279,9.0,11.0,75,0.00,,,0.00,Wunderground v.1.15,2013-04-30 06:45:00,
2013-04-30 02:50:00,48.9,41.3,30.22,West,280,10.0,10.0,75,0.00,,,0.00,Wunderground v.1.15,2013-04-30 06:50:00,
2013-04-30 02:55:00,48.8,41.2,30.22,West,271,10.0,10.0,75,0.00,,,0.00,Wunderground v.1.15,2013-04-30 06:55:00,
2013-04-30 03:00:00,48.8,41.2,30.22,West,281,10.0,10.0,75,0.00,,,0.00,Wunderground v.1.15,2013-04-30 07:00:00,
2013-04-30 03:05:00,48.8,41.2,30.22,West,281,10.0,11.0,75,0.00,,,0.00,Wunderground v.1.15,2013-04-30 07:05:00,
2013-04-30 03:10:00,48.8,41.2,30.23,WNW,283,10.0,10.0,75,0.00,,,0.00,Wunderground v.1.15,2013-04-30 07:10:00,
2013-04-30 03:15:00,48.7,41.5,30.22,WNW,284,10.0,11.0,76,0.00,,,0.00,Wunderground v.1.15,2013-04-30 07:15:00,
2013-04-30 03:20:00,48.7,41.5,30.23,WNW,283,10.0,10.0,76,0.00,,,0.00,Wunderground v.1.15,2013-04-30 07:20:00,
2013-04-30 03:25:00,48.6,41.7,30.23,West,278,10.0,10.0,77,0.00,,,0.00,Wunderground v.1.15,2013-04-30 07:25:00,
2013-04-30 03:30:00,48.6,41.4,30.23,WNW,283,10.0,10.0,76,0.00,,,0.00,Wunderground v.1.15,2013-04-30 07:30:00,
2013-04-30 03:35:00,48.5,41.6,30.23,WNW,285,9.0,10.0,77,0.00,,,0.00,Wunderground v.1.15,2013-04-30 07:35:00,
2013-04-30 03:40:00,48.5,42.0,30.23,WNW,285,9.0,10.0,78,0.00,,,0.00,Wunderground v.1.15,2013-04-30 07:40:00,
2013-04-30 03:45:00,48.5,42.0,30.23,WNW,287,10.0,11.0,78,0.00,,,0.00,Wunderground v.1.15,2013-04-30 07:45:00,
2013-04-30 03:50:00,48.5,41.6,30.23,WNW,287,10.0,11.0,77,0.00,,,0.00,Wunderground v.1.15,2013-04-30 07:50:00,
2013-04-30 03:55:00,48.5,41.6,30.23,WNW,288,10.0,11.0,77,0.00,,,0.00,Wunderground v.1.15,2013-04-30 07:55:00,
2013-04-30 04:00:00,48.5,41.6,30.23,WNW,293,10.0,11.0,77,0.00,,,0.00,Wunderground v.1.15,2013-04-30 08:00:00,
2013-04-30 04:05:00,48.5,41.3,30.23,WNW,295,11.0,11.0,76,0.00,,,0.00,Wunderground v.1.15,2013-04-30 08:05:00,
2013-04-30 04:10:00,48.6,41.4,30.23,WNW,293,10.0,11.0,76,0.00,,,0.00,Wunderground v.1.15,2013-04-30 08:10:00,
2013-04-30 04:15:00,48.5,41.3,30.23,WNW,293,10.0,11.0,76,0.00,,,0.00,Wunderground v.1.15,2013-04-30 08:15:00,
2013-04-30 04:20:00,48.5,41.6,30.23,WNW,293,11.0,11.0,77,0.00,,,0.00,Wunderground v.1.15,2013-04-30 08:20:00,
2013-04-30 04:25:00,48.4,41.5,30.23,WNW,293,10.0,11.0,77,0.00,,,0.00,Wunderground v.1.15,2013-04-30 08:25:00,
2013-04-30 04:30:00,48.4,41.5,30.23,WNW,293,10.0,11.0,77,0.00,,,0.00,Wunderground v.1.15,2013-04-30 08:30:00,
2013-04-30 04:35:00,48.4,41.2,30.23,WNW,293,10.0,11.0,76,0.00,,,0.00,Wunderground v.1.15,2013-04-30 08:35:00,
2013-04-30 04:40:00,48.3,41.4,30.23,WNW,297,10.0,10.0,77,0.00,,,0.00,Wunderground v.1.15,2013-04-30 08:40:00,
2013-04-30 04:45:00,48.3,41.4,30.24,WNW,298,10.0,11.0,77,0.00,,,0.00,Wunderground v.1.15,2013-04-30 08:45:00,
2013-04-30 04:50:00,48.3,41.1,30.24,WNW,297,10.0,10.0,76,0.00,,,0.00,Wunderground v.1.15,2013-04-30 08:50:00,
2013-04-30 04:55:00,48.3,41.1,30.24,WNW,297,9.0,10.0,76,0.00,,,0.00,Wunderground v.1.15,2013-04-30 08:55:00,
2013-04-30 05:00:00,48.3,41.4,30.24,WNW,297,10.0,10.0,77,0.00,,,0.00,Wunderground v.1.15,2013-04-30 09:00:00,
2013-04-30 05:05:00,48.2,41.3,30.24,WNW,297,10.0,10.0,77,0.00,,,0.00,Wunderground v.1.15,2013-04-30 09:05:00,
2013-04-30 05:10:00,48.1,41.2,30.24,WNW,300,9.0,10.0,77,0.00,,,0.00,Wunderground v.1.15,2013-04-30 09:10:00,
2013-04-30 05:15:00,48.1,41.2,30.24,WNW,298,9.0,10.0,77,0.00,,,0.00,Wunderground v.1.15,2013-04-30 09:15:00,
2013-04-30 05:20:00,48.1,41.2,30.24,WNW,298,9.0,9.0,77,0.00,,,0.00,Wunderground v.1.15,2013-04-30 09:20:00,
2013-04-30 05:25:00,48.1,41.2,30.25,WNW,298,9.0,10.0,77,0.00,,,0.00,Wunderground v.1.15,2013-04-30 09:25:00,
2013-04-30 05:30:00,48.1,41.2,30.25,WNW,302,9.0,9.0,77,0.00,,,0.00,Wunderground v.1.15,2013-04-30 09:30:00,
2013-04-30 05:35:00,48.0,41.1,30.25,NW,304,9.0,10.0,77,0.00,,,0.00,Wunderground v.1.15,2013-04-30 09:35:00,
2013-04-30 05:40:00,48.0,41.5,30.25,NW,307,9.0,9.0,78,0.00,,,0.00,Wunderground v.1.15,2013-04-30 09:40:00,
2013-04-30 05:45:00,48.0,41.5,30.25,NW,311,8.0,9.0,78,0.00,,,0.00,Wunderground v.1.15,2013-04-30 09:45:00,
2013-04-30 05:50:00,48.0,41.8,30.25,NW,311,7.0,8.0,79,0.00,,,0.00,Wunderground v.1.15,2013-04-30 09:50:00,
2013-04-30 05:55:00,47.9,42.0,30.26,NW,315,7.0,8.0,80,0.00,,,0.00,Wunderground v.1.15,2013-04-30 09:55:00,
2013-04-30 06:00:00,47.8,41.9,30.26,NW,315,6.0,7.0,80,0.00,,,0.00,Wunderground v.1.15,2013-04-30 10:00:00,
2013-04-30 06:05:00,47.7,41.8,30.26,NW,316,6.0,7.0,80,0.00,,,0.00,Wunderground v.1.15,2013-04-30 10:05:00,
2013-04-30 06:10:00,47.7,41.5,30.26,NW,319,6.0,6.0,79,0.00,,,0.00,Wunderground v.1.15,2013-04-30 10:10:00,
2013-04-30 06:15:00,47.7,41.2,30.26,NW,321,6.0,6.0,78,0.00,,,0.00,Wunderground v.1.15,2013-04-30 10:15:00,
2013-04-30 06:20:00,47.7,40.5,30.26,NW,323,5.0,6.0,76,0.00,,,0.00,Wunderground v.1.15,2013-04-30 10:20:00,
2013-04-30 06:25:00,47.9,40.7,30.26,NW,325,5.0,6.0,76,0.00,,,0.00,Wunderground v.1.15,2013-04-30 10:25:00,
2013-04-30 06:30:00,48.0,39.8,30.26,NW,324,5.0,6.0,73,0.00,,,0.00,Wunderground v.1.15,2013-04-30 10:30:00,
2013-04-30 06:35:00,48.0,38.7,30.26,NW,324,6.0,6.0,70,0.00,,,0.00,Wunderground v.1.15,2013-04-30 10:35:00,
2013-04-30 06:40:00,48.1,38.0,30.26,NW,326,6.0,6.0,68,0.00,,,0.00,Wunderground v.1.15,2013-04-30 10:40:00,
2013-04-30 06:45:00,48.2,37.8,30.27,NW,326,7.0,7.0,67,0.00,,,0.00,Wunderground v.1.15,2013-04-30 10:45:00,
2013-04-30 06:50:00,48.3,38.2,30.27,NW,324,7.0,7.0,68,0.00,,,0.00,Wunderground v.1.15,2013-04-30 10:50:00,
2013-04-30 06:55:00,48.4,37.9,30.27,NNW,328,6.0,7.0,67,0.00,,,0.00,Wunderground v.1.15,2013-04-30 10:55:00,
2013-04-30 07:00:00,48.4,36.4,30.27,NNW,330,6.0,6.0,63,0.00,,,0.00,Wunderground v.1.15,2013-04-30 11:00:00,
2013-04-30 07:05:00,48.5,36.1,30.27,NNW,327,6.0,6.0,62,0.00,,,0.00,Wunderground v.1.15,2013-04-30 11:05:00,
2013-04-30 07:10:00,48.6,38.1,30.27,NW,326,4.0,6.0,67,0.00,,,0.00,Wunderground v.1.15,2013-04-30 11:10:00,
2013-04-30 07:15:00,48.6,38.9,30.27,NW,319,4.0,6.0,69,0.00,,,0.00,Wunderground v.1.15,2013-04-30 11:15:00,
2013-04-30 07:20:00,48.7,38.6,30.27,NW,311,4.0,4.0,68,0.00,,,0.00,Wunderground v.1.15,2013-04-30 11:20:00,
2013-04-30 07:25:00,48.8,39.4,30.27,NW,324,2.0,5.0,70,0.00,,,0.00,Wunderground v.1.15,2013-04-30 11:25:00,
2013-04-30 07:30:00,48.9,38.8,30.28,NW,304,4.0,5.0,68,0.00,,,0.00,Wunderground v.1.15,2013-04-30 11:30:00,
2013-04-30 07:35:00,48.9,39.2,30.28,NW,313,5.0,5.0,69,0.00,,,0.00,Wunderground v.1.15,2013-04-30 11:35:00,
2013-04-30 07:40:00,48.8,39.4,30.28,WNW,298,2.0,4.0,70,0.00,,,0.00,Wunderground v.1.15,2013-04-30 11:40:00,
2013-04-30 07:45:00,48.8,38.7,30.28,WNW,302,4.0,5.0,68,0.00,,,0.00,Wunderground v.1.15,2013-04-30 11:45:00,
2013-04-30 07:50:00,48.9,38.0,30.28,WNW,300,4.0,4.0,66,0.00,,,0.00,Wunderground v.1.15,2013-04-30 11:50:00,
2013-04-30 07:55:00,49.0,39.6,30.29,WNW,301,3.0,5.0,70,0.00,,,0.00,Wunderground v.1.15,2013-04-30 11:55:00,
2013-04-30 08:00:00,49.3,39.6,30.28,WNW,297,3.0,4.0,69,0.00,,,0.00,Wunderground v.1.15,2013-04-30 12:00:00,
2013-04-30 08:05:00,49.3,39.6,30.29,WNW,301,3.0,4.0,69,0.00,,,0.00,Wunderground v.1.15,2013-04-30 12:05:00,
2013-04-30 08:10:00,49.2,37.9,30.29,WNW,287,3.0,5.0,65,0.00,,,0.00,Wunderground v.1.15,2013-04-30 12:10:00,
2013-04-30 08:15:00,49.2,39.8,30.29,NW,316,4.0,5.0,70,0.00,,,0.00,Wunderground v.1.15,2013-04-30 12:15:00,
2013-04-30 08:20:00,49.4,39.7,30.29,WNW,283,4.0,5.0,69,0.00,,,0.00,Wunderground v.1.15,2013-04-30 12:20:00,
2013-04-30 08:25:00,49.5,39.0,30.29,NW,309,5.0,5.0,67,0.00,,,0.00,Wunderground v.1.15,2013-04-30 12:25:00,
2013-04-30 08:30:00,49.5,38.6,30.29,NW,304,4.0,4.0,66,0.00,,,0.00,Wunderground v.1.15,2013-04-30 12:30:00,
2013-04-30 08:35:00,49.3,38.4,30.29,WNW,287,3.0,4.0,66,0.00,,,0.00,Wunderground v.1.15,2013-04-30 12:35:00,
2013-04-30 08:40:00,49.4,39.3,30.30,WNW,298,3.0,3.0,68,0.00,,,0.00,Wunderground v.1.15,2013-04-30 12:40:00,
2013-04-30 08:45:00,49.6,37.9,30.30,WNW,293,3.0,4.0,64,0.00,,,0.00,Wunderground v.1.15,2013-04-30 12:45:00,
2013-04-30 08:50:00,50.0,39.1,30.29,WNW,284,3.0,3.0,66,0.00,,,0.00,Wunderground v.1.15,2013-04-30 12:50:00,
2013-04-30 08:55:00,50.2,39.3,30.30,WNW,301,3.0,5.0,66,0.00,,,0.00,Wunderground v.1.15,2013-04-30 12:55:00,
2013-04-30 09:00:00,50.5,39.2,30.30,WNW,283,3.0,4.0,65,0.00,,,0.00,Wunderground v.1.15,2013-04-30 13:00:00,
2013-04-30 09:05:00,50.3,39.0,30.30,West,260,5.0,5.0,65,0.00,,,0.00,Wunderground v.1.15,2013-04-30 13:05:00,
2013-04-30 09:10:00,50.2,38.9,30.30,West,270,7.0,7.0,65,0.00,,,0.00,Wunderground v.1.15,2013-04-30 13:10:00,
2013-04-30 09:15:00,49.9,39.0,30.30,West,268,5.0,7.0,66,0.00,,,0.00,Wunderground v.1.15,2013-04-30 13:15:00,
2013-04-30 09:20:00,50.0,39.5,30.30,West,270,5.0,6.0,67,0.00,,,0.00,Wunderground v.1.15,2013-04-30 13:20:00,
2013-04-30 09:25:00,50.0,39.1,30.30,West,260,7.0,7.0,66,0.00,,,0.00,Wunderground v.1.15,2013-04-30 13:25:00,
2013-04-30 09:30:00,50.1,41.1,30.30,WSW,252,4.0,6.0,71,0.00,,,0.00,Wunderground v.1.15,2013-04-30 13:30:00,
2013-04-30 09:35:00,50.1,41.4,30.30,WSW,243,7.0,8.0,72,0.00,,,0.00,Wunderground v.1.15,2013-04-30 13:35:00,
2013-04-30 09:40:00,50.2,41.5,30.30,West,270,6.0,7.0,72,0.00,,,0.00,Wunderground v.1.15,2013-04-30 13:40:00,
2013-04-30 09:45:00,50.4,41.0,30.30,WSW,243,8.0,10.0,70,0.00,,,0.00,Wunderground v.1.15,2013-04-30 13:45:00,
2013-04-30 09:50:00,50.7,42.0,30.30,West,263,7.0,7.0,72,0.00,,,0.00,Wunderground v.1.15,2013-04-30 13:50:00,
2013-04-30 09:55:00,51.4,42.7,30.30,WSW,243,5.0,7.0,72,0.00,,,0.00,Wunderground v.1.15,2013-04-30 13:55:00,
2013-04-30 10:00:00,51.6,43.2,30.30,SW,229,5.0,6.0,73,0.00,,,0.00,Wunderground v.1.15,2013-04-30 14:00:00,
2013-04-30 10:05:00,52.0,40.6,30.30,WSW,255,5.0,8.0,65,0.00,,,0.00,Wunderground v.1.15,2013-04-30 14:05:00,
2013-04-30 10:10:00,52.2,40.4,30.30,West,266,8.0,8.0,64,0.00,,,0.00,Wunderground v.1.15,2013-04-30 14:10:00,
2013-04-30 10:15:00,52.1,39.9,30.30,West,263,9.0,10.0,63,0.00,,,0.00,Wunderground v.1.15,2013-04-30 14:15:00,
2013-04-30 10:20:00,52.3,41.3,30.30,West,259,9.0,9.0,66,0.00,,,0.00,Wunderground v.1.15,2013-04-30 14:20:00,
2013-04-30 10:25:00,52.6,40.8,30.30,West,273,6.0,9.0,64,0.00,,,0.00,Wunderground v.1.15,2013-04-30 14:25:00,
2013-04-30 10:30:00,53.1,41.6,30.30,WSW,243,6.0,7.0,65,0.00,,,0.00,Wunderground v.1.15,2013-04-30 14:30:00,
2013-04-30 10:35:00,53.1,40.8,30.30,WSW,245,6.0,8.0,63,0.00,,,0.00,Wunderground v.1.15,2013-04-30 14:35:00,
2013-04-30 10:40:00,53.5,42.0,30.30,West,262,5.0,6.0,65,0.00,,,0.00,Wunderground v.1.15,2013-04-30 14:40:00,
2013-04-30 10:45:00,54.0,41.3,30.31,WSW,248,5.0,7.0,62,0.00,,,0.00,Wunderground v.1.15,2013-04-30 14:45:00,
2013-04-30 10:50:00,54.3,41.1,30.30,WSW,253,7.0,8.0,61,0.00,,,0.00,Wunderground v.1.15,2013-04-30 14:50:00,
2013-04-30 10:55:00,54.3,40.3,30.30,WSW,246,7.0,8.0,59,0.00,,,0.00,Wunderground v.1.15,2013-04-30 14:55:00,
2013-04-30 11:00:00,54.8,41.6,30.30,West,259,6.0,10.0,61,0.00,,,0.00,Wunderground v.1.15,2013-04-30 15:00:00,
2013-04-30 11:05:00,54.9,40.4,30.30,WSW,243,9.0,11.0,58,0.00,,,0.00,Wunderground v.1.15,2013-04-30 15:05:00,
2013-04-30 11:10:00,54.7,38.4,30.30,WSW,249,8.0,8.0,54,0.00,,,0.00,Wunderground v.1.15,2013-04-30 15:10:00,
2013-04-30 11:14:00,54.8,38.9,30.30,WSW,248,9.0,10.0,55,0.00,,,0.00,Wunderground v.1.15,2013-04-30 15:14:00,
2013-04-30 11:19:00,54.9,39.5,30.30,WSW,249,7.0,8.0,56,0.00,,,0.00,Wunderground v.1.15,2013-04-30 15:19:00,
2013-04-30 11:24:00,55.0,37.7,30.30,WSW,256,7.0,10.0,52,0.00,,,0.00,Wunderground v.1.15,2013-04-30 15:24:00,
2013-04-30 11:29:00,55.3,38.4,30.30,WSW,257,8.0,8.0,53,0.00,,,0.00,Wunderground v.1.15,2013-04-30 15:29:00,
2013-04-30 11:34:00,55.5,36.1,30.30,WSW,253,9.0,11.0,48,0.00,,,0.00,Wunderground v.1.15,2013-04-30 15:34:00,
2013-04-30 11:39:00,55.9,35.9,30.30,West,266,8.0,8.0,47,0.00,,,0.00,Wunderground v.1.15,2013-04-30 15:39:00,
2013-04-30 11:44:00,56.2,37.3,30.30,WSW,257,8.0,10.0,49,0.00,,,0.00,Wunderground v.1.15,2013-04-30 15:44:00,
2013-04-30 11:49:00,56.5,36.0,30.30,WSW,256,5.0,7.0,46,0.00,,,0.00,Wunderground v.1.15,2013-04-30 15:49:00,
2013-04-30 11:54:00,57.0,38.5,30.30,WSW,257,6.0,9.0,50,0.00,,,0.00,Wunderground v.1.15,2013-04-30 15:54:00,
2013-04-30 11:59:00,57.1,34.8,30.30,WSW,252,6.0,6.0,43,0.00,,,0.00,Wunderground v.1.15,2013-04-30 15:59:00,
2013-04-30 12:04:00,57.2,38.7,30.30,SW,229,8.0,11.0,50,0.00,,,0.00,Wunderground v.1.15,2013-04-30 16:04:00,
2013-04-30 12:09:00,56.4,41.8,30.30,SSW,193,8.0,8.0,58,0.00,,,0.00,Wunderground v.1.15,2013-04-30 16:09:00,
2013-04-30 12:14:00,55.6,41.9,30.30,SSW,203,7.0,11.0,60,0.00,,,0.00,Wunderground v.1.15,2013-04-30 16:14:00,
2013-04-30 12:19:00,55.8,38.9,30.30,WSW,245,6.0,12.0,53,0.00,,,0.00,Wunderground v.1.15,2013-04-30 16:19:00,
2013-04-30 12:24:00,55.9,40.0,30.30,SW,236,10.0,12.0,55,0.00,,,0.00,Wunderground v.1.15,2013-04-30 16:24:00,
2013-04-30 12:29:00,55.8,40.3,30.30,SW,228,10.0,12.0,56,0.00,,,0.00,Wunderground v.1.15,2013-04-30 16:29:00,
2013-04-30 12:34:00,55.5,39.1,30.30,SSW,210,6.0,12.0,54,0.00,,,0.00,Wunderground v.1.15,2013-04-30 16:34:00,
2013-04-30 12:39:00,55.5,37.1,30.29,WSW,238,12.0,12.0,50,0.00,,,0.00,Wunderground v.1.15,2013-04-30 16:39:00,
2013-04-30 12:44:00,55.5,35.0,30.29,SSW,210,11.0,14.0,46,0.00,,,0.00,Wunderground v.1.15,2013-04-30 16:44:00,
2013-04-30 12:49:00,55.5,35.6,30.29,SW,231,12.0,14.0,47,0.00,,,0.00,Wunderground v.1.15,2013-04-30 16:49:00,
2013-04-30 12:54:00,55.5,38.6,30.29,SSW,210,9.0,14.0,53,0.00,,,0.00,Wunderground v.1.15,2013-04-30 16:54:00,
2013-04-30 12:59:00,55.4,39.5,30.29,SW,231,13.0,14.0,55,0.00,,,0.00,Wunderground v.1.15,2013-04-30 16:59:00,
2013-04-30 13:04:00,55.2,35.8,30.29,WSW,243,11.0,14.0,48,0.00,,,0.00,Wunderground v.1.15,2013-04-30 17:04:00,
2013-04-30 13:09:00,55.1,39.2,30.30,WSW,249,12.0,14.0,55,0.00,,,0.00,Wunderground v.1.15,2013-04-30 17:09:00,
2013-04-30 13:14:00,54.9,38.1,30.30,WSW,242,12.0,15.0,53,0.00,,,0.00,Wunderground v.1.15,2013-04-30 17:14:00,
2013-04-30 13:19:00,54.8,39.4,30.29,WSW,249,11.0,15.0,56,0.00,,,0.00,Wunderground v.1.15,2013-04-30 17:19:00,
2013-04-30 13:24:00,54.6,37.8,30.29,WSW,240,13.0,15.0,53,0.00,,,0.00,Wunderground v.1.15,2013-04-30 17:24:00,
2013-04-30 13:29:00,54.7,37.4,30.29,SW,235,12.0,15.0,52,0.00,,,0.00,Wunderground v.1.15,2013-04-30 17:29:00,
2013-04-30 13:34:00,54.7,37.9,30.29,West,262,9.0,14.0,53,0.00,,,0.00,Wunderground v.1.15,2013-04-30 17:34:00,
2013-04-30 13:39:00,54.9,38.6,30.29,SSW,207,9.0,15.0,54,0.00,,,0.00,Wunderground v.1.15,2013-04-30 17:39:00,
2013-04-30 13:44:00,54.9,37.1,30.29,WSW,246,12.0,14.0,51,0.00,,,0.00,Wunderground v.1.15,2013-04-30 17:44:00,
2013-04-30 13:49:00,55.0,38.2,30.29,WSW,239,12.0,14.0,53,0.00,,,0.00,Wunderground v.1.15,2013-04-30 17:49:00,
2013-04-30 13:54:00,55.1,39.2,30.29,WSW,238,8.0,13.0,55,0.00,,,0.00,Wunderground v.1.15,2013-04-30 17:54:00,
2013-04-30 13:59:00,54.9,38.6,30.29,WSW,255,10.0,15.0,54,0.00,,,0.00,Wunderground v.1.15,2013-04-30 17:59:00,
2013-04-30 14:04:00,54.8,38.0,30.29,SW,221,13.0,15.0,53,0.00,,,0.00,Wunderground v.1.15,2013-04-30 18:04:00,
2013-04-30 14:09:00,54.8,40.3,30.29,WSW,237,12.0,15.0,58,0.00,,,0.00,Wunderground v.1.15,2013-04-30 18:09:00,
2013-04-30 14:14:00,54.4,39.5,30.29,WSW,242,14.0,15.0,57,0.00,,,0.00,Wunderground v.1.15,2013-04-30 18:14:00,
2013-04-30 14:19:00,54.3,38.0,30.29,West,260,9.0,15.0,54,0.00,,,0.00,Wunderground v.1.15,2013-04-30 18:19:00,
2013-04-30 14:24:00,54.3,36.5,30.30,WSW,238,14.0,16.0,51,0.00,,,0.00,Wunderground v.1.15,2013-04-30 18:24:00,
2013-04-30 14:29:00,54.4,36.1,30.29,WSW,252,12.0,16.0,50,0.00,,,0.00,Wunderground v.1.15,2013-04-30 18:29:00,
2013-04-30 14:34:00,54.2,40.2,30.30,SW,235,7.0,16.0,59,0.00,,,0.00,Wunderground v.1.15,2013-04-30 18:34:00,
2013-04-30 14:39:00,54.1,40.9,30.29,SW,218,13.0,16.0,61,0.00,,,0.00,Wunderground v.1.15,2013-04-30 18:39:00,
2013-04-30 14:44:00,54.0,40.4,30.29,West,260,13.0,15.0,60,0.00,,,0.00,Wunderground v.1.15,2013-04-30 18:44:00,
2013-04-30 14:49:00,53.7,41.0,30.29,WSW,240,12.0,16.0,62,0.00,,,0.00,Wunderground v.1.15,2013-04-30 18:49:00,
2013-04-30 14:54:00,53.6,40.5,30.30,SW,236,16.0,16.0,61,0.00,,,0.00,Wunderground v.1.15,2013-04-30 18:54:00,
2013-04-30 14:59:00,53.5,40.8,30.29,SW,224,11.0,16.0,62,0.00,,,0.00,Wunderground v.1.15,2013-04-30 18:59:00,
2013-04-30 15:04:00,53.3,40.6,30.29,SW,235,9.0,16.0,62,0.00,,,0.00,Wunderground v.1.15,2013-04-30 19:04:00,
2013-04-30 15:09:00,53.4,40.7,30.29,SW,233,12.0,17.0,62,0.00,,,0.00,Wunderground v.1.15,2013-04-30 19:09:00,
2013-04-30 15:14:00,53.3,40.2,30.29,WSW,245,14.0,17.0,61,0.00,,,0.00,Wunderground v.1.15,2013-04-30 19:14:00,
2013-04-30 15:19:00,53.1,40.0,30.29,WSW,248,16.0,17.0,61,0.00,,,0.00,Wunderground v.1.15,2013-04-30 19:19:00,
2013-04-30 15:24:00,53.1,38.3,30.28,SW,233,15.0,16.0,57,0.00,,,0.00,Wunderground v.1.15,2013-04-30 19:24:00,
2013-04-30 15:29:00,53.3,39.3,30.29,SW,224,16.0,17.0,59,0.00,,,0.00,Wunderground v.1.15,2013-04-30 19:29:00,
2013-04-30 15:34:00,53.3,38.9,30.28,WSW,246,12.0,18.0,58,0.00,,,0.00,Wunderground v.1.15,2013-04-30 19:34:00,
2013-04-30 15:39:00,53.2,39.2,30.29,WSW,243,14.0,18.0,59,0.00,,,0.00,Wunderground v.1.15,2013-04-30 19:39:00,
2013-04-30 15:44:00,53.1,40.0,30.29,SW,233,11.0,16.0,61,0.00,,,0.00,Wunderground v.1.15,2013-04-30 19:44:00,
2013-04-30 15:49:00,53.1,39.1,30.29,WSW,240,14.0,17.0,59,0.00,,,0.00,Wunderground v.1.15,2013-04-30 19:49:00,
2013-04-30 15:54:00,53.5,37.3,30.28,SSW,212,14.0,17.0,54,0.00,,,0.00,Wunderground v.1.15,2013-04-30 19:54:00,
2013-04-30 15:59:00,53.8,38.0,30.28,SW,221,14.0,18.0,55,0.00,,,0.00,Wunderground v.1.15,2013-04-30 19:59:00,
2013-04-30 16:04:00,53.7,38.8,30.28,SW,233,15.0,17.0,57,0.00,,,0.00,Wunderground v.1.15,2013-04-30 20:04:00,
2013-04-30 16:09:00,53.6,41.3,30.28,SSW,210,14.0,17.0,63,0.00,,,0.00,Wunderground v.1.15,2013-04-30 20:09:00,
2013-04-30 16:14:00,53.2,41.3,30.28,SW,215,11.0,17.0,64,0.00,,,0.00,Wunderground v.1.15,2013-04-30 20:14:00,
2013-04-30 16:19:00,53.3,39.8,30.28,SSW,207,14.0,17.0,60,0.00,,,0.00,Wunderground v.1.15,2013-04-30 20:19:00,
2013-04-30 16:24:00,53.2,40.9,30.28,SW,224,14.0,16.0,63,0.00,,,0.00,Wunderground v.1.15,2013-04-30 20:24:00,
2013-04-30 16:29:00,53.1,42.8,30.28,SW,226,12.0,16.0,68,0.00,,,0.00,Wunderground v.1.15,2013-04-30 20:29:00,
2013-04-30 16:34:00,53.0,42.3,30.28,SSW,207,14.0,16.0,67,0.00,,,0.00,Wunderground v.1.15,2013-04-30 20:34:00,
2013-04-30 16:39:00,52.8,42.1,30.28,SSW,207,15.0,17.0,67,0.00,,,0.00,Wunderground v.1.15,2013-04-30 20:39:00,
2013-04-30 16:44:00,52.8,42.5,30.28,SSW,194,10.0,17.0,68,0.00,,,0.00,Wunderground v.1.15,2013-04-30 20:44:00,
2013-04-30 16:49:00,53.0,42.3,30.28,SW,235,13.0,17.0,67,0.00,,,0.00,Wunderground v.1.15,2013-04-30 20:49:00,
2013-04-30 16:54:00,53.0,40.7,30.28,SW,235,14.0,16.0,63,0.00,,,0.00,Wunderground v.1.15,2013-04-30 20:54:00,
2013-04-30 16:59:00,53.0,41.1,30.28,SW,214,13.0,16.0,64,0.00,,,0.00,Wunderground v.1.15,2013-04-30 20:59:00,
2013-04-30 17:04:00,53.0,40.7,30.28,SW,219,13.0,15.0,63,0.00,,,0.00,Wunderground v.1.15,2013-04-30 21:04:00,
2013-04-30 17:09:00,53.1,40.4,30.29,SW,236,12.0,15.0,62,0.00,,,0.00,Wunderground v.1.15,2013-04-30 21:09:00,
2013-04-30 17:14:00,53.1,41.2,30.29,SW,215,13.0,15.0,64,0.00,,,0.00,Wunderground v.1.15,2013-04-30 21:14:00,
2013-04-30 17:19:00,52.8,42.1,30.29,SW,236,13.0,15.0,67,0.00,,,0.00,Wunderground v.1.15,2013-04-30 21:19:00,
2013-04-30 17:24:00,52.6,41.6,30.29,WSW,239,13.0,14.0,66,0.00,,,0.00,Wunderground v.1.15,2013-04-30 21:24:00,
2013-04-30 17:29:00,52.5,41.9,30.29,SW,225,13.0,15.0,67,0.00,,,0.00,Wunderground v.1.15,2013-04-30 21:29:00,
2013-04-30 17:34:00,52.6,41.6,30.29,SSW,212,13.0,16.0,66,0.00,,,0.00,Wunderground v.1.15,2013-04-30 21:34:00,
2013-04-30 17:39:00,52.8,42.5,30.29,SW,231,12.0,16.0,68,0.00,,,0.00,Wunderground v.1.15,2013-04-30 21:39:00,
2013-04-30 17:44:00,52.8,42.1,30.29,SSW,212,12.0,13.0,67,0.00,,,0.00,Wunderground v.1.15,2013-04-30 21:44:00,
2013-04-30 17:49:00,52.8,43.3,30.29,SW,222,14.0,14.0,70,0.00,,,0.00,Wunderground v.1.15,2013-04-30 21:49:00,
2013-04-30 17:54:00,52.6,42.7,30.29,WSW,240,10.0,15.0,69,0.00,,,0.00,Wunderground v.1.15,2013-04-30 21:54:00,
2013-04-30 17:59:00,52.5,42.6,30.30,SSW,210,10.0,15.0,69,0.00,,,0.00,Wunderground v.1.15,2013-04-30 21:59:00,
2013-04-30 18:04:00,52.5,43.4,30.30,SSW,205,8.0,14.0,71,0.00,,,0.00,Wunderground v.1.15,2013-04-30 22:04:00,
2013-04-30 18:09:00,52.3,43.2,30.30,SW,217,12.0,15.0,71,0.00,,,0.00,Wunderground v.1.15,2013-04-30 22:09:00,
2013-04-30 18:14:00,52.1,42.2,30.30,SW,226,15.0,16.0,69,0.00,,,0.00,Wunderground v.1.15,2013-04-30 22:14:00,
2013-04-30 18:19:00,52.2,42.3,30.30,SSW,210,14.0,16.0,69,0.00,,,0.00,Wunderground v.1.15,2013-04-30 22:19:00,
2013-04-30 18:24:00,52.2,42.0,30.29,SW,222,15.0,16.0,68,0.00,,,0.00,Wunderground v.1.15,2013-04-30 22:24:00,
2013-04-30 18:29:00,52.1,41.9,30.29,WSW,239,14.0,16.0,68,0.00,,,0.00,Wunderground v.1.15,2013-04-30 22:29:00,
2013-04-30 18:34:00,52.0,42.1,30.30,SW,219,13.0,16.0,69,0.00,,,0.00,Wunderground v.1.15,2013-04-30 22:34:00,
2013-04-30 18:39:00,51.9,42.0,30.29,SW,222,13.0,16.0,69,0.00,,,0.00,Wunderground v.1.15,2013-04-30 22:39:00,
2013-04-30 18:44:00,51.7,41.9,30.29,SSW,210,11.0,16.0,69,0.00,,,0.00,Wunderground v.1.15,2013-04-30 22:44:00,
2013-04-30 18:49:00,51.6,42.1,30.29,SSW,213,10.0,16.0,70,0.00,,,0.00,Wunderground v.1.15,2013-04-30 22:49:00,
2013-04-30 18:54:00,51.3,41.8,30.29,SW,224,14.0,15.0,70,0.00,,,0.00,Wunderground v.1.15,2013-04-30 22:54:00,
2013-04-30 18:59:00,51.2,41.4,30.29,SSW,212,14.0,17.0,69,0.00,,,0.00,Wunderground v.1.15,2013-04-30 22:59:00,
2013-04-30 19:04:00,51.0,40.4,30.29,WSW,238,16.0,17.0,67,0.00,,,0.00,Wunderground v.1.15,2013-04-30 23:04:00,
2013-04-30 19:09:00,50.9,40.7,30.29,SW,232,15.0,18.0,68,0.00,,,0.00,Wunderground v.1.15,2013-04-30 23:09:00,
2013-04-30 19:14:00,50.8,39.8,30.30,SW,214,14.0,17.0,66,0.00,,,0.00,Wunderground v.1.15,2013-04-30 23:14:00,
2013-04-30 19:19:00,50.7,41.3,30.30,SW,231,12.0,17.0,70,0.00,,,0.00,Wunderground v.1.15,2013-04-30 23:19:00,
2013-04-30 19:23:00,50.5,41.4,30.30,SW,219,13.0,15.0,71,0.00,,,0.00,Wunderground v.1.15,2013-04-30 23:23:00,
2013-04-30 19:28:00,50.2,41.2,30.30,WSW,242,14.0,15.0,71,0.00,,,0.00,Wunderground v.1.15,2013-04-30 23:28:00,
2013-04-30 19:33:00,50.0,41.3,30.30,SW,226,13.0,16.0,72,0.00,,,0.00,Wunderground v.1.15,2013-04-30 23:33:00,
2013-04-30 19:38:00,49.7,41.7,30.30,SW,218,13.0,16.0,74,0.00,,,0.00,Wunderground v.1.15,2013-04-30 23:38:00,
2013-04-30 19:43:00,49.5,41.9,30.30,WSW,241,12.0,14.0,75,0.00,,,0.00,Wunderground v.1.15,2013-04-30 23:43:00,
2013-04-30 19:48:00,49.3,42.1,30.30,WSW,242,12.0,15.0,76,0.00,,,0.00,Wunderground v.1.15,2013-04-30 23:48:00,
2013-04-30 19:53:00,49.2,42.0,30.30,SW,231,12.0,14.0,76,0.00,,,0.00,Wunderground v.1.15,2013-04-30 23:53:00,
2013-04-30 19:58:00,49.2,42.0,30.31,WSW,252,11.0,14.0,76,0.00,,,0.00,Wunderground v.1.15,2013-04-30 23:58:00,
2013-04-30 20:03:00,49.1,42.2,30.31,WSW,255,12.0,13.0,77,0.00,,,0.00,Wunderground v.1.15,2013-05-01 00:03:00,
2013-04-30 20:08:00,49.1,41.9,30.31,WSW,257,12.0,13.0,76,0.00,,,0.00,Wunderground v.1.15,2013-05-01 00:08:00,
2013-04-30 20:13:00,49.2,41.6,30.31,West,259,12.0,14.0,75,0.00,,,0.00,Wunderground v.1.15,2013-05-01 00:13:00,
2013-04-30 20:18:00,49.2,41.6,30.31,SW,236,9.0,14.0,75,0.00,,,0.00,Wunderground v.1.15,2013-05-01 00:18:00,
2013-04-30 20:23:00,49.2,41.3,30.31,West,269,10.0,13.0,74,0.00,,,0.00,Wunderground v.1.15,2013-05-01 00:23:00,
2013-04-30 20:28:00,49.3,41.4,30.31,West,266,11.0,13.0,74,0.00,,,0.00,Wunderground v.1.15,2013-05-01 00:28:00,
2013-04-30 20:33:00,49.4,41.5,30.31,West,276,12.0,13.0,74,0.00,,,0.00,Wunderground v.1.15,2013-05-01 00:33:00,
2013-04-30 20:38:00,49.3,41.7,30.31,West,277,10.0,13.0,75,0.00,,,0.00,Wunderground v.1.15,2013-05-01 00:38:00,
2013-04-30 20:43:00,49.3,42.1,30.32,West,271,12.0,12.0,76,0.00,,,0.00,Wunderground v.1.15,2013-05-01 00:43:00,
2013-04-30 20:48:00,49.4,40.7,30.32,West,265,11.0,14.0,72,0.00,,,0.00,Wunderground v.1.15,2013-05-01 00:48:00,
2013-04-30 20:53:00,49.6,40.9,30.32,West,269,9.0,13.0,72,0.00,,,0.00,Wunderground v.1.15,2013-05-01 00:53:00,
2013-04-30 20:58:00,49.7,40.7,30.32,West,266,10.0,13.0,71,0.00,,,0.00,Wunderground v.1.15,2013-05-01 00:58:00,
2013-04-30 21:03:00,49.6,41.3,30.32,West,263,10.0,12.0,73,0.00,,,0.00,Wunderground v.1.15,2013-05-01 01:03:00,
2013-04-30 21:08:00,49.5,41.9,30.32,West,259,9.0,12.0,75,0.00,,,0.00,Wunderground v.1.15,2013-05-01 01:08:00,
2013-04-30 21:13:00,49.4,42.8,30.32,WSW,255,10.0,11.0,78,0.00,,,0.00,Wunderground v.1.15,2013-05-01 01:13:00,
2013-04-30 21:18:00,49.3,42.7,30.32,WSW,243,13.0,13.0,78,0.00,,,0.00,Wunderground v.1.15,2013-05-01 01:18:00,
2013-04-30 21:23:00,49.4,42.1,30.32,WSW,253,12.0,14.0,76,0.00,,,0.00,Wunderground v.1.15,2013-05-01 01:23:00,
2013-04-30 21:29:00,49.5,42.9,30.32,WSW,249,13.0,14.0,78,0.00,,,0.00,Wunderground v.1.15,2013-05-01 01:29:00,
2013-04-30 21:34:00,49.5,42.6,30.32,WSW,239,13.0,14.0,77,0.00,,,0.00,Wunderground v.1.15,2013-05-01 01:34:00,
2013-04-30 21:39:00,49.3,42.4,30.32,SW,235,14.0,14.0,77,0.00,,,0.00,Wunderground v.1.15,2013-05-01 01:39:00,
2013-04-30 21:44:00,49.3,41.7,30.32,SW,224,14.0,15.0,75,0.00,,,0.00,Wunderground v.1.15,2013-05-01 01:44:00,
2013-04-30 21:49:00,49.1,41.9,30.32,SSW,212,12.0,15.0,76,0.00,,,0.00,Wunderground v.1.15,2013-05-01 01:49:00,
2013-04-30 21:54:00,49.0,42.1,30.32,SW,232,11.0,14.0,77,0.00,,,0.00,Wunderground v.1.15,2013-05-01 01:54:00,
2013-04-30 21:59:00,48.9,42.3,30.33,WSW,241,12.0,14.0,78,0.00,,,0.00,Wunderground v.1.15,2013-05-01 01:59:00,
2013-04-30 22:04:00,48.8,42.2,30.32,SW,219,12.0,14.0,78,0.00,,,0.00,Wunderground v.1.15,2013-05-01 02:04:00,
2013-04-30 22:09:00,48.7,42.1,30.32,SW,229,11.0,14.0,78,0.00,,,0.00,Wunderground v.1.15,2013-05-01 02:09:00,
2013-04-30 22:14:00,48.7,42.8,30.32,WSW,240,13.0,14.0,80,0.00,,,0.00,Wunderground v.1.15,2013-05-01 02:14:00,
2013-04-30 22:19:00,48.5,42.9,30.32,SW,220,11.0,14.0,81,0.00,,,0.00,Wunderground v.1.15,2013-05-01 02:19:00,
2013-04-30 22:24:00,48.4,43.2,30.33,WSW,238,12.0,13.0,82,0.00,,,0.00,Wunderground v.1.15,2013-05-01 02:24:00,
2013-04-30 22:29:00,48.4,42.2,30.32,SW,214,12.0,13.0,79,0.00,,,0.00,Wunderground v.1.15,2013-05-01 02:29:00,
2013-04-30 22:34:00,48.6,42.0,30.32,SW,226,13.0,14.0,78,0.00,,,0.00,Wunderground v.1.15,2013-05-01 02:34:00,
2013-04-30 22:39:00,48.7,41.8,30.32,SW,214,13.0,14.0,77,0.00,,,0.00,Wunderground v.1.15,2013-05-01 02:39:00,
2013-04-30 22:43:00,48.9,40.3,30.32,SW,218,13.0,15.0,72,0.00,,,0.00,Wunderground v.1.15,2013-05-01 02:43:00,
2013-04-30 22:48:00,49.2,40.2,30.32,SW,222,13.0,15.0,71,0.00,,,0.00,Wunderground v.1.15,2013-05-01 02:48:00,
2013-04-30 22:53:00,49.2,41.3,30.33,SW,215,12.0,15.0,74,0.00,,,0.00,Wunderground v.1.15,2013-05-01 02:53:00,
2013-04-30 22:58:00,49.0,41.8,30.33,SW,218,15.0,15.0,76,0.00,,,0.00,Wunderground v.1.15,2013-05-01 02:58:00,
2013-04-30 23:03:00,48.8,41.9,30.33,SW,214,14.0,15.0,77,0.00,,,0.00,Wunderground v.1.15,2013-05-01 03:03:00,
2013-04-30 23:08:00,48.6,42.0,30.33,SW,215,14.0,16.0,78,0.00,,,0.00,Wunderground v.1.15,2013-05-01 03:08:00,
2013-04-30 23:13:00,48.4,41.9,30.33,SSW,208,13.0,16.0,78,0.00,,,0.00,Wunderground v.1.15,2013-05-01 03:13:00,
2013-04-30 23:18:00,48.3,41.8,30.33,SW,218,12.0,16.0,78,0.00,,,0.00,Wunderground v.1.15,2013-05-01 03:18:00,
2013-04-30 23:23:00,48.2,41.3,30.33,SW,224,13.0,14.0,77,0.00,,,0.00,Wunderground v.1.15,2013-05-01 03:23:00,
2013-04-30 23:28:00,48.2,41.0,30.34,SW,232,12.0,14.0,76,0.00,,,0.00,Wunderground v.1.15,2013-05-01 03:28:00,
2013-04-30 23:33:00,48.2,41.3,30.34,WSW,249,11.0,12.0,77,0.00,,,0.00,Wunderground v.1.15,2013-05-01 03:33:00,
2013-04-30 23:38:00,48.1,41.6,30.34,West,259,8.0,12.0,78,0.00,,,0.00,Wunderground v.1.15,2013-05-01 03:38:00,
2013-04-30 23:43:00,48.1,41.6,30.34,West,281,5.0,10.0,78,0.00,,,0.00,Wunderground v.1.15,2013-05-01 03:43:00,
2013-04-30 23:48:00,48.0,42.1,30.35,NW,314,5.0,10.0,80,0.00,,,0.00,Wunderground v.1.15,2013-05-01 03:48:00,
2013-04-30 23:53:00,48.1,42.2,30.35,NW,316,5.0,6.0,80,0.00,,,0.00,Wunderground v.1.15,2013-05-01 03:53:00,
2013-04-30 23:58:00,48.3,41.8,30.36,NNW,329,6.0,7.0,78,0.00,,,0.00,Wunderground v.1.15,2013-05-01 03:58:00,